SWR4ZW LSZH-EDDL

Flight info

Callsign SWR4ZW
Flight time 0h 49m
Altitude 32000
Route DEGES Z1 ETAGO DCT HAREM/N0480F330 DCT LOHRE/N0482F320 Z850 ADEMI T854 DOMUX DOMUX1A
Aircraft MD11/H-SDE1E2E3FGHIJ2J3J4J5M1RWXY/LB1D1

Departure

Time 2026-05-04 20:50
Airport Zürich Airport (LSZH)

Arrival

Time 2026-05-04 21:39
Airport Düsseldorf Airport (EDDL)
Time Latitude Longitude Altitude Speed Heading
2026-05-04 20:10 47.46192 8.55286 1404 ft 0 kts 186°
2026-05-04 20:39 47.46207 8.55288 1410 ft 4 kts 186°
2026-05-04 20:39 47.46230 8.55291 1411 ft 4 kts 184°
2026-05-04 20:39 47.46253 8.55289 1414 ft 4 kts 150°
2026-05-04 20:40 47.46268 8.55268 1414 ft 4 kts 109°
2026-05-04 20:40 47.46274 8.55230 1411 ft 4 kts 96°
2026-05-04 20:40 47.46275 8.55219 1414 ft 3 kts 96°
2026-05-04 20:44 47.46274 8.55229 1411 ft 3 kts 96°
2026-05-04 20:44 47.46270 8.55295 1412 ft 9 kts 96°
2026-05-04 20:45 47.46262 8.55408 1406 ft 14 kts 96°
2026-05-04 20:45 47.46250 8.55571 1412 ft 17 kts 96°
2026-05-04 20:45 47.46237 8.55755 1411 ft 19 kts 96°
2026-05-04 20:45 47.46221 8.55943 1413 ft 18 kts 106°
2026-05-04 20:46 47.46151 8.56073 1415 ft 14 kts 136°
2026-05-04 20:46 47.46082 8.56168 1417 ft 13 kts 137°
2026-05-04 20:46 47.46015 8.56260 1416 ft 13 kts 137°
2026-05-04 20:46 47.45952 8.56344 1419 ft 12 kts 137°
2026-05-04 20:47 47.45888 8.56430 1413 ft 13 kts 137°
2026-05-04 20:47 47.45816 8.56529 1415 ft 15 kts 130°
2026-05-04 20:47 47.45792 8.56670 1412 ft 15 kts 96°
2026-05-04 20:47 47.45780 8.56827 1410 ft 16 kts 96°
2026-05-04 20:48 47.45765 8.56981 1407 ft 14 kts 109°
2026-05-04 20:48 47.45693 8.57034 1408 ft 11 kts 184°
2026-05-04 20:48 47.45663 8.57008 1414 ft 2 kts 233°
2026-05-04 20:48 47.45659 8.56996 1415 ft 2 kts 244°
2026-05-04 20:49 47.45659 8.56978 1411 ft 3 kts 273°
2026-05-04 20:49 47.45679 8.56753 1410 ft 65 kts 277°
2026-05-04 20:49 47.45765 8.55582 1411 ft 160 kts 276°
2026-05-04 20:49 47.45887 8.53741 1958 ft 186 kts 275°
2026-05-04 20:50 47.46008 8.51904 3336 ft 175 kts 275°
2026-05-04 20:50 47.46126 8.50149 4359 ft 177 kts 276°
2026-05-04 20:50 47.46134 8.48224 4587 ft 202 kts 261°
2026-05-04 20:50 47.45623 8.46207 4750 ft 221 kts 242°
2026-05-04 20:51 47.44853 8.44216 4964 ft 225 kts 239°
2026-05-04 20:51 47.44058 8.42246 5798 ft 224 kts 238°
2026-05-04 20:51 47.43260 8.40245 6407 ft 233 kts 237°
2026-05-04 20:51 47.42061 8.38654 6807 ft 233 kts 201°
2026-05-04 20:52 47.40469 8.38290 7302 ft 234 kts 185°
2026-05-04 20:52 47.38841 8.38128 7740 ft 236 kts 174°
2026-05-04 20:52 47.37361 8.39114 8222 ft 240 kts 138°
2026-05-04 20:52 47.36551 8.41270 8661 ft 249 kts 104°
2026-05-04 20:53 47.36596 8.43894 8845 ft 267 kts 78°
2026-05-04 20:53 47.37210 8.46613 8992 ft 294 kts 71°
2026-05-04 20:53 47.37965 8.49583 9138 ft 324 kts 71°
2026-05-04 20:53 47.38738 8.52830 9289 ft 355 kts 73°
2026-05-04 20:54 47.39502 8.56344 10085 ft 363 kts 74°
2026-05-04 20:54 47.40232 8.59943 10944 ft 369 kts 75°
2026-05-04 20:54 47.40938 8.63608 11934 ft 369 kts 76°
2026-05-04 20:54 47.41633 8.67338 12587 ft 381 kts 76°
2026-05-04 20:55 47.42330 8.71161 13443 ft 388 kts 76°
2026-05-04 20:55 47.43028 8.75038 14231 ft 394 kts 76°
2026-05-04 20:55 47.43735 8.78980 15006 ft 399 kts 76°
2026-05-04 20:55 47.44393 8.82980 15589 ft 404 kts 77°
2026-05-04 20:56 47.45442 8.86849 16366 ft 409 kts 60°
2026-05-04 20:56 47.47221 8.90162 17103 ft 415 kts 42°
2026-05-04 20:56 47.49584 8.92605 17833 ft 418 kts 25°
2026-05-04 20:56 47.52311 8.94107 18476 ft 421 kts 14°
2026-05-04 20:57 47.55170 8.95143 19086 ft 425 kts 11°
2026-05-04 20:57 47.58082 8.96089 19683 ft 430 kts 12°
2026-05-04 20:57 47.60939 8.97299 20285 ft 435 kts 18°
2026-05-04 20:57 47.63768 8.98950 20874 ft 440 kts 23°
2026-05-04 20:58 47.66529 9.00958 21441 ft 445 kts 27°
2026-05-04 20:58 47.69259 9.03214 22031 ft 450 kts 30°
2026-05-04 20:58 47.71966 9.05597 22591 ft 454 kts 31°
2026-05-04 20:58 47.74682 9.08052 23176 ft 459 kts 31°
2026-05-04 20:59 47.77417 9.10542 23706 ft 463 kts 31°
2026-05-04 20:59 47.80185 9.13060 24231 ft 466 kts 31°
2026-05-04 20:59 47.82933 9.15550 24747 ft 470 kts 31°
2026-05-04 20:59 47.85774 9.18119 25277 ft 473 kts 31°
2026-05-04 21:00 47.88599 9.20670 25789 ft 476 kts 31°
2026-05-04 21:00 47.91438 9.23237 26294 ft 480 kts 31°
2026-05-04 21:00 47.94269 9.25800 26783 ft 483 kts 31°
2026-05-04 21:00 47.97112 9.28381 27265 ft 487 kts 31°
2026-05-04 21:01 48.00019 9.31025 27734 ft 490 kts 31°
2026-05-04 21:01 48.02938 9.33685 28186 ft 494 kts 32°
2026-05-04 21:01 48.05883 9.36371 28652 ft 497 kts 32°
2026-05-04 21:01 48.08848 9.39079 29099 ft 501 kts 32°
2026-05-04 21:02 48.11840 9.41811 29543 ft 505 kts 31°
2026-05-04 21:02 48.14925 9.44349 29953 ft 508 kts 25°
2026-05-04 21:02 48.18248 9.46165 30343 ft 511 kts 13°
2026-05-04 21:02 48.21747 9.47084 30766 ft 512 kts
2026-05-04 21:03 48.25308 9.47196 31243 ft 509 kts 356°
2026-05-04 21:03 48.28840 9.46925 31804 ft 507 kts 354°
2026-05-04 21:03 48.32348 9.46605 32383 ft 504 kts 354°
2026-05-04 21:03 48.35848 9.46368 32969 ft 502 kts 355°
2026-05-04 21:04 48.39327 9.46234 33535 ft 499 kts 356°
2026-05-04 21:04 48.42808 9.46178 33955 ft 499 kts 357°
2026-05-04 21:04 48.46275 9.46170 34317 ft 497 kts 358°
2026-05-04 21:04 48.49680 9.46181 34669 ft 495 kts 358°
2026-05-04 21:05 48.53134 9.46191 34817 ft 497 kts 358°
2026-05-04 21:05 48.56589 9.46177 34927 ft 496 kts 357°
2026-05-04 21:05 48.63496 9.46107 34961 ft 496 kts 357°
2026-05-04 21:06 48.70398 9.46023 34973 ft 496 kts 357°
2026-05-04 21:06 48.77301 9.45801 34963 ft 496 kts 355°
2026-05-04 21:07 48.84199 9.45441 34966 ft 496 kts 355°
2026-05-04 21:07 48.91114 9.45070 34972 ft 497 kts 355°
2026-05-04 21:08 48.98025 9.44712 34982 ft 497 kts 355°
2026-05-04 21:08 49.04955 9.44360 34983 ft 498 kts 355°
2026-05-04 21:09 49.11875 9.44007 34982 ft 498 kts 355°
2026-05-04 21:09 49.18802 9.43653 34981 ft 498 kts 355°
2026-05-04 21:10 49.25692 9.43299 34981 ft 498 kts 355°
2026-05-04 21:10 49.32617 9.42942 34982 ft 498 kts 355°
2026-05-04 21:11 49.39563 9.42583 34983 ft 499 kts 355°
2026-05-04 21:11 49.46505 9.42224 34982 ft 499 kts 355°
2026-05-04 21:12 49.53446 9.41863 34984 ft 499 kts 355°
2026-05-04 21:12 49.60312 9.40680 34987 ft 494 kts 343°
2026-05-04 21:13 49.66895 9.37944 34986 ft 493 kts 341°
2026-05-04 21:13 49.73547 9.35251 34987 ft 494 kts 343°
2026-05-04 21:14 49.80248 9.32815 34989 ft 494 kts 344°
2026-05-04 21:14 49.86957 9.30469 34988 ft 494 kts 344°
2026-05-04 21:15 49.93683 9.28112 34987 ft 495 kts 344°
2026-05-04 21:15 50.00209 9.25134 34987 ft 489 kts 331°
2026-05-04 21:16 50.05761 9.19324 34985 ft 476 kts 311°
2026-05-04 21:16 50.09696 9.11223 34980 ft 466 kts 296°
2026-05-04 21:17 50.13026 9.03165 34495 ft 476 kts 303°
2026-05-04 21:17 50.15124 8.99199 33952 ft 473 kts 307°
2026-05-04 21:17 50.17390 8.95480 33381 ft 473 kts 310°
2026-05-04 21:18 50.19759 8.91890 32846 ft 476 kts 312°
2026-05-04 21:18 50.22179 8.88351 32316 ft 478 kts 313°
2026-05-04 21:18 50.24628 8.84804 31823 ft 480 kts 313°
2026-05-04 21:18 50.27046 8.81294 31301 ft 481 kts 313°
2026-05-04 21:19 50.29489 8.77725 30798 ft 482 kts 313°
2026-05-04 21:19 50.31941 8.74122 30256 ft 484 kts 312°
2026-05-04 21:19 50.34390 8.70504 29573 ft 485 kts 313°
2026-05-04 21:19 50.36845 8.66868 28914 ft 486 kts 313°
2026-05-04 21:20 50.39311 8.63207 28280 ft 488 kts 313°
2026-05-04 21:20 50.41781 8.59533 27657 ft 490 kts 313°
2026-05-04 21:20 50.44261 8.55841 27039 ft 491 kts 313°
2026-05-04 21:20 50.46731 8.52158 26419 ft 488 kts 313°
2026-05-04 21:21 50.49186 8.48495 25807 ft 485 kts 313°
2026-05-04 21:21 50.51619 8.44859 25205 ft 480 kts 313°
2026-05-04 21:21 50.54027 8.41256 24602 ft 476 kts 313°
2026-05-04 21:21 50.56379 8.37715 24008 ft 472 kts 313°
2026-05-04 21:22 50.58733 8.34140 23389 ft 468 kts 313°
2026-05-04 21:22 50.61065 8.30599 22722 ft 463 kts 313°
2026-05-04 21:22 50.63374 8.27097 22123 ft 459 kts 313°
2026-05-04 21:22 50.65666 8.23629 21536 ft 455 kts 313°
2026-05-04 21:23 50.67946 8.20179 20962 ft 451 kts 313°
2026-05-04 21:23 50.70199 8.16770 20391 ft 448 kts 313°
2026-05-04 21:23 50.72437 8.13380 19828 ft 444 kts 313°
2026-05-04 21:23 50.74656 8.10014 19268 ft 441 kts 313°
2026-05-04 21:24 50.76859 8.06667 18718 ft 437 kts 313°
2026-05-04 21:24 50.79044 8.03344 18138 ft 434 kts 313°
2026-05-04 21:24 50.81205 8.00053 17540 ft 429 kts 313°
2026-05-04 21:24 50.83346 7.96787 16983 ft 424 kts 313°
2026-05-04 21:25 50.85431 7.93604 16433 ft 420 kts 313°
2026-05-04 21:25 50.87525 7.90400 15909 ft 416 kts 313°
2026-05-04 21:25 50.89594 7.87231 15376 ft 412 kts 313°
2026-05-04 21:25 50.91646 7.84086 14852 ft 408 kts 313°
2026-05-04 21:26 50.93673 7.80973 14331 ft 404 kts 313°
2026-05-04 21:26 50.95679 7.77889 13813 ft 400 kts 313°
2026-05-04 21:26 50.97667 7.74829 13237 ft 396 kts 313°
2026-05-04 21:26 50.99635 7.71795 12716 ft 392 kts 313°
2026-05-04 21:27 51.01582 7.68791 12204 ft 388 kts 313°
2026-05-04 21:27 51.03508 7.65814 11792 ft 381 kts 313°
2026-05-04 21:27 51.05347 7.62979 11607 ft 356 kts 313°
2026-05-04 21:27 51.07069 7.60322 11406 ft 336 kts 312°
2026-05-04 21:28 51.08749 7.57717 11223 ft 330 kts 312°
2026-05-04 21:28 51.10350 7.55236 11026 ft 311 kts 312°
2026-05-04 21:28 51.11854 7.52902 10839 ft 295 kts 312°
2026-05-04 21:28 51.13311 7.50634 10657 ft 293 kts 311°
2026-05-04 21:29 51.14276 7.49127 10535 ft 292 kts 311°
2026-05-04 21:29 51.16194 7.46111 10226 ft 293 kts 311°
2026-05-04 21:29 51.17637 7.43823 9751 ft 292 kts 311°
2026-05-04 21:29 51.19075 7.41549 9262 ft 289 kts 311°
2026-05-04 21:30 51.20497 7.39309 8812 ft 286 kts 311°
2026-05-04 21:30 51.21906 7.37094 8371 ft 283 kts 312°
2026-05-04 21:30 51.22835 7.35634 8083 ft 282 kts 312°
2026-05-04 21:30 51.24698 7.32707 7540 ft 280 kts 312°
2026-05-04 21:31 51.27000 7.29090 6930 ft 278 kts 312°
2026-05-04 21:31 51.28375 7.26929 6546 ft 277 kts 312°
2026-05-04 21:31 51.29748 7.24770 6161 ft 275 kts 313°
2026-05-04 21:32 51.31108 7.22629 5759 ft 273 kts 313°
2026-05-04 21:32 51.32406 7.20585 5395 ft 271 kts 313°
2026-05-04 21:32 51.33742 7.18481 5063 ft 268 kts 313°
2026-05-04 21:32 51.35049 7.16420 4711 ft 266 kts 313°
2026-05-04 21:33 51.36354 7.14359 4379 ft 260 kts 313°
2026-05-04 21:33 51.37623 7.12355 4047 ft 253 kts 313°
2026-05-04 21:33 51.38856 7.10406 3745 ft 246 kts 313°
2026-05-04 21:33 51.40028 7.08450 3436 ft 239 kts 306°
2026-05-04 21:34 51.40799 7.06176 3190 ft 227 kts 283°
2026-05-04 21:34 51.40876 7.03719 3050 ft 224 kts 254°
2026-05-04 21:34 51.40199 7.01528 3036 ft 221 kts 236°
2026-05-04 21:34 51.39373 6.99541 2989 ft 204 kts 235°
2026-05-04 21:35 51.38570 6.97686 2997 ft 202 kts 232°
2026-05-04 21:35 51.37760 6.95956 2871 ft 186 kts 231°
2026-05-04 21:35 51.36992 6.94334 2618 ft 182 kts 232°
2026-05-04 21:35 51.36243 6.92746 2390 ft 179 kts 232°
2026-05-04 21:36 51.35511 6.91193 2124 ft 162 kts 232°
2026-05-04 21:36 51.34876 6.89841 1896 ft 148 kts 231°
2026-05-04 21:36 51.34263 6.88541 1741 ft 146 kts 231°
2026-05-04 21:36 51.33651 6.87244 1549 ft 146 kts 231°
2026-05-04 21:37 51.33047 6.85963 1363 ft 146 kts 231°
2026-05-04 21:37 51.32426 6.84656 1170 ft 146 kts 231°
2026-05-04 21:37 51.31816 6.83375 957 ft 146 kts 231°
2026-05-04 21:37 51.31204 6.82076 772 ft 147 kts 232°
2026-05-04 21:38 51.30606 6.80757 575 ft 146 kts 233°
2026-05-04 21:38 51.29995 6.79465 373 ft 146 kts 232°
2026-05-04 21:38 51.29381 6.78179 174 ft 145 kts 231°
2026-05-04 21:38 51.28851 6.77071 141 ft 98 kts 233°
2026-05-04 21:39 51.28558 6.76452 140 ft 41 kts 232°
2026-05-04 21:39 51.28472 6.76271 140 ft 14 kts 233°
2026-05-04 21:39 51.28409 6.76142 139 ft 15 kts 229°
2026-05-04 21:39 51.28329 6.76047 141 ft 14 kts 201°
2026-05-04 21:40 51.28240 6.76043 143 ft 12 kts 164°
2026-05-04 21:40 51.28208 6.76069 144 ft 0 kts 146°
2026-05-04 21:41 51.28205 6.76072 144 ft 1 kts 146°
2026-05-04 21:41 51.28196 6.76083 144 ft 2 kts 142°
2026-05-04 21:41 51.28187 6.76104 144 ft 3 kts 117°
2026-05-04 21:42 51.28195 6.76166 144 ft 9 kts 60°
2026-05-04 21:42 51.28240 6.76256 144 ft 11 kts 52°
2026-05-04 21:42 51.28289 6.76358 144 ft 12 kts 53°
2026-05-04 21:42 51.28343 6.76473 144 ft 14 kts 53°
2026-05-04 21:43 51.28403 6.76600 144 ft 14 kts 53°
2026-05-04 21:43 51.28413 6.76642 144 ft 2 kts 82°
2026-05-04 21:43 51.28405 6.76679 144 ft 5 kts 119°
2026-05-04 21:43 51.28366 6.76733 144 ft 10 kts 152°
2026-05-04 21:44 51.28305 6.76730 144 ft 8 kts 202°
2026-05-04 21:44 51.28290 6.76720 144 ft 1 kts 203°
2026-05-04 21:44 51.28280 6.76713 144 ft 3 kts 203°
2026-05-04 21:44 51.28260 6.76699 144 ft 3 kts 205°
2026-05-04 21:45 51.28259 6.76698 144 ft 0 kts 205°